Date String (YYYY-MM-DD hh:mm:ss) UTC,Instrument flags,absolute air pressure of the measurement (hPa),sample flow rate (lpm),inlet stack bypass flow (lpm),air temperature of the measurement (°C),ambient temperature measured by the external sensor (°C),aerosol sample conditioner tube jacket temperature (°C),OPC LED temperature (°C),internal box temperature (°C),relative humidity of the measurement (%),span deviation,mass concentration of particles derived from Lorenz-Mie calculation of OPC scattering (μg/m³),mass concentration of particles derived from Lorenz-Mie calculation of OPC scattering (μg/m³),mass concentration of particles derived from Lorenz-Mie calculation of OPC scattering (μg/m³)
DateTimeUTC,F1_M11,P_M11,Q1_M11,Q2_M11,T1_M11,T2_M11,T3_M11,T4_M11,T5_M11,U1_M11,ZSPAN_M11,X0_M11,X2_M11,X1_M11
2024-06-17 21:00:00,SystemResetWarning,0816.1,4.99,000.00,028.9,026.9,000.0,037.5,030.3,034.4,-000.1,0037.32,0010.55,0008.24
2024-06-17 21:01:00,SystemResetWarning,0816.1,5.00,000.00,028.9,027.3,000.0,037.5,030.5,034.2,-000.4,0036.47,0010.53,0008.22
2024-06-17 21:02:00,SystemResetWarning,0816.0,5.01,000.00,029.0,027.7,000.0,037.4,030.7,034.5,-000.1,0035.56,0010.52,0008.19
2024-06-17 21:03:00,SystemResetWarning,0816.0,4.99,000.00,029.1,028.0,000.0,037.4,030.8,034.1,0000.5,0036.13,0010.50,0008.18
2024-06-17 21:04:00,SystemResetWarning,0816.1,5.00,000.00,029.1,028.3,000.0,037.4,031.0,033.8,0001.0,0036.22,0010.49,0008.18
2024-06-17 21:05:00,SystemResetWarning,0816.1,5.00,000.00,029.2,028.6,000.0,037.5,031.1,033.9,0001.3,0036.09,0010.49,0008.19
2024-06-17 21:06:00,SystemResetWarning,0816.1,5.01,000.00,029.3,028.8,000.0,037.5,031.2,033.6,0001.7,0035.32,0010.54,0008.19
2024-06-17 21:07:00,SystemResetWarning,0816.1,5.00,000.00,029.4,029.0,000.0,037.5,031.3,033.6,0001.8,0035.65,0010.49,0008.20
2024-06-17 21:08:00,SystemResetWarning,0816.0,5.00,000.00,029.5,029.1,000.0,037.6,031.4,033.3,0001.7,0036.58,0010.48,0008.21
2024-06-17 21:09:00,SystemResetWarning,0816.0,5.00,000.00,029.6,029.2,000.0,037.6,031.4,033.3,0001.6,0034.63,0010.47,0008.17
2024-06-17 21:10:00,SystemResetWarning,0815.9,4.98,000.00,029.5,027.8,000.0,037.7,030.8,033.3,0001.4,0036.06,0010.47,0008.12
2024-06-17 21:11:00,SystemResetWarning,0815.9,5.01,000.00,029.1,026.1,000.0,037.7,029.9,033.7,0001.3,0037.36,0010.48,0008.11
2024-06-17 21:12:00,SystemResetWarning,0815.9,5.01,000.00,028.9,025.9,000.0,037.7,029.8,034.2,0001.6,0038.45,0010.49,0008.11
2024-06-17 21:13:00,SystemResetWarning,0815.9,4.99,000.00,028.8,026.3,000.0,037.6,030.0,034.1,0001.6,0038.07,0010.50,0008.11
2024-06-17 21:14:00,SystemResetWarning,0815.9,5.00,000.00,028.8,026.8,000.0,037.5,030.2,034.1,0001.2,0036.57,0010.51,0008.10
2024-06-17 21:15:00,SystemResetWarning,0815.8,5.01,000.00,028.9,027.2,000.0,037.4,030.5,034.0,0001.2,0035.58,0010.56,0008.08
2024-06-17 21:16:00,SystemResetWarning,0815.8,5.00,000.00,029.0,027.6,000.0,037.4,030.7,034.0,0001.2,0035.63,0010.52,0008.03
2024-06-17 21:17:00,SystemResetWarning,0815.9,5.00,000.00,029.0,028.0,000.0,037.4,030.8,034.3,0000.9,0036.06,0010.41,0007.98
2024-06-17 21:18:00,SystemResetWarning,0815.8,5.00,000.00,029.1,028.3,000.0,037.4,031.0,034.1,0000.5,0035.31,0010.31,0007.93
2024-06-17 21:19:00,SystemResetWarning,0815.9,5.01,000.00,029.2,028.5,000.0,037.4,031.1,034.1,0000.6,0034.46,0010.30,0007.89
2024-06-17 21:20:00,SystemResetWarning,0816.0,5.00,000.00,029.3,028.8,000.0,037.5,031.2,033.4,0000.5,0035.92,0010.24,0007.87
2024-06-17 21:21:00,SystemResetWarning,0816.0,5.00,000.00,029.4,029.0,000.0,037.5,031.3,033.3,0000.7,0035.85,0010.16,0007.83
2024-06-17 21:22:00,SystemResetWarning,0815.9,5.00,000.00,029.5,028.9,000.0,037.6,031.3,032.9,0000.6,0035.67,0010.01,0007.80
2024-06-17 21:23:00,SystemResetWarning,0815.8,4.99,000.00,029.3,027.1,000.0,037.6,030.4,033.7,0000.9,0034.69,0009.93,0007.76
2024-06-17 21:24:00,SystemResetWarning,0815.7,5.01,000.00,028.9,025.6,000.0,037.6,029.6,034.2,0000.9,0036.02,0009.97,0007.69
2024-06-17 21:25:00,SystemResetWarning,0815.6,5.01,000.00,028.7,025.8,000.0,037.6,029.6,034.6,0001.1,0037.37,0009.94,0007.65
2024-06-17 21:26:00,SystemResetWarning,0815.6,5.00,000.00,028.7,026.3,000.0,037.5,029.9,035.2,0001.4,0036.99,0009.91,0007.63
2024-06-17 21:27:00,SystemResetWarning,0815.6,5.00,000.00,028.7,026.8,000.0,037.4,030.2,035.2,0000.5,0037.47,0009.88,0007.61
2024-06-17 21:28:00,SystemResetWarning,0815.6,5.01,000.00,028.8,027.2,000.0,037.3,030.4,034.9,0001.3,0037.74,0009.91,0007.61
2024-06-17 21:29:00,SystemResetWarning,0815.6,4.99,000.00,028.9,027.6,000.0,037.3,030.6,034.6,0001.5,0037.94,0010.01,0007.61
2024-06-17 21:30:00,SystemResetWarning,0815.6,4.99,000.00,028.9,027.9,000.0,037.3,030.8,034.5,0001.8,0038.53,0010.06,0007.60
2024-06-17 21:31:00,SystemResetWarning,0815.6,5.00,000.00,029.0,028.2,000.0,037.3,030.9,034.3,0001.8,0039.55,0010.02,0007.57
2024-06-17 21:32:00,SystemResetWarning,0815.6,5.01,000.00,029.1,028.5,000.0,037.3,031.0,034.3,0002.0,0042.40,0010.09,0007.56
2024-06-17 21:33:00,SystemResetWarning,0815.6,5.00,000.00,029.2,028.7,000.0,037.4,031.1,033.8,0002.4,0042.57,0010.11,0007.54
2024-06-17 21:34:00,SystemResetWarning,0815.6,5.00,000.00,029.3,028.9,000.0,037.4,031.3,033.7,0002.2,0042.21,0010.18,0007.53
2024-06-17 21:35:00,SystemResetWarning,0815.6,5.00,000.00,029.4,029.1,000.0,037.5,031.3,033.3,0002.6,0042.18,0010.12,0007.52
2024-06-17 21:36:00,SystemResetWarning,0815.6,4.98,000.00,029.4,028.0,000.0,037.5,030.8,033.6,0002.7,0041.65,0010.11,0007.52
2024-06-17 21:37:00,SystemResetWarning,0815.4,5.02,000.00,029.0,026.0,000.0,037.6,029.9,034.0,0002.4,0042.85,0010.07,0007.51
2024-06-17 21:38:00,SystemResetWarning,0815.4,5.00,000.00,028.8,025.8,000.0,037.6,029.7,034.7,0001.1,0043.21,0010.10,0007.52
2024-06-17 21:39:00,SystemResetWarning,0815.4,5.00,000.00,028.7,026.2,000.0,037.5,029.9,034.9,0000.0,0043.32,0010.12,0007.52
2024-06-17 21:40:00,SystemResetWarning,0815.4,5.00,000.00,028.7,026.7,000.0,037.4,030.1,034.8,0000.0,0043.13,0010.04,0007.51
2024-06-17 21:41:00,SystemResetWarning,0815.4,5.01,000.00,028.8,027.2,000.0,037.3,030.4,035.0,0002.2,0042.65,0010.00,0007.51
2024-06-17 21:42:00,SystemResetWarning,0815.4,4.99,000.00,028.9,027.6,000.0,037.3,030.6,034.8,0002.9,0041.13,0010.05,0007.53
2024-06-17 21:43:00,SystemResetWarning,0815.4,5.00,000.00,029.0,028.0,000.0,037.3,030.7,035.0,0002.8,0037.02,0009.99,0007.54
2024-06-17 21:44:00,SystemResetWarning,0815.4,5.01,000.00,029.0,028.3,000.0,037.3,030.9,034.8,0002.8,0036.38,0009.99,0007.53
2024-06-17 21:45:00,SystemResetWarning,0815.4,5.00,000.00,029.1,028.5,000.0,037.3,031.0,034.7,0002.8,0034.71,0009.88,0007.54
2024-06-17 21:46:00,SystemResetWarning,0815.4,5.00,000.00,029.2,028.7,000.0,037.4,031.1,034.3,0002.5,0034.68,0009.89,0007.55
2024-06-17 21:47:00,SystemResetWarning,0815.4,5.00,000.00,029.3,028.9,000.0,037.4,031.3,033.5,0002.8,0034.63,0009.92,0007.57
2024-06-17 21:48:00,SystemResetWarning,0815.4,5.00,000.00,029.4,029.0,000.0,037.5,031.3,033.3,0002.8,0033.69,0009.92,0007.58
2024-06-17 21:49:00,SystemResetWarning,0815.3,5.00,000.00,029.3,027.4,000.0,037.5,030.6,033.6,0002.7,0032.50,0009.87,0007.57
2024-06-17 21:50:00,SystemResetWarning,0815.2,5.00,000.00,028.9,025.7,000.0,037.6,029.7,034.2,0002.2,0031.58,0009.94,0007.56
2024-06-17 21:51:00,SystemResetWarning,0815.2,5.01,000.00,028.7,025.7,000.0,037.5,029.6,034.4,0001.7,0031.16,0010.02,0007.55
2024-06-17 21:52:00,SystemResetWarning,0815.2,5.01,000.00,028.7,026.2,000.0,037.4,029.9,034.7,0001.3,0031.93,0010.03,0007.56
2024-06-17 21:53:00,SystemResetWarning,0815.2,4.99,000.00,028.7,026.7,000.0,037.3,030.1,035.1,0001.9,0031.66,0010.03,0007.56
2024-06-17 21:54:00,SystemResetWarning,0815.2,5.01,000.00,028.8,027.1,000.0,037.3,030.4,034.9,0001.9,0031.27,0010.05,0007.58
2024-06-17 21:55:00,SystemResetWarning,0815.3,5.00,000.00,028.8,027.6,000.0,037.3,030.5,034.7,0002.1,0031.48,0010.04,0007.60
2024-06-17 21:56:00,SystemResetWarning,0815.3,4.99,000.00,028.9,027.9,000.0,037.3,030.7,034.4,0001.7,0034.30,0010.10,0007.60
2024-06-17 21:57:00,SystemResetWarning,0815.3,5.00,000.00,029.0,028.2,000.0,037.3,030.9,034.4,0001.4,0033.95,0010.08,0007.60
2024-06-17 21:58:00,SystemResetWarning,0815.3,5.00,000.00,029.1,028.5,000.0,037.3,031.0,034.4,0001.2,0033.31,0010.06,0007.56
2024-06-17 21:59:00,SystemResetWarning,0815.2,5.01,000.00,029.2,028.7,000.0,037.3,031.1,034.8,0001.2,0035.14,0010.13,0007.54
